Weather History for Pascagoula, MS

Change the Weather History Date:

Sunday, January 12, 2014

  Actual Average Record
Temperature  
Mean Temperature 58 °F -  
Max Temperature 77 °F 57 °F 78 °F (1949)
Min Temperature 39 °F 37 °F 8 °F (1982)
Degree Days  
Heating Degree Days 7    
Growing Degree Days 8 (Base 50)    
Moisture  
Dew Point 37 °F    
Average Humidity 59    
Maximum Humidity 83    
Minimum Humidity 19    
Precipitation  
Precipitation 0.00 in - - ()
Sea Level Pressure  
Sea Level Pressure 30.17 in    
Wind  
Wind Speed 2 mph (SSE)    
Max Wind Speed 15 mph    
Max Gust Speed -    
Visibility 10 miles    
Events      
Averages and records for this station are not official NWS values.
T = Trace of Precipitation, MM = Missing Value Source: NWS Daily Summary

Daily Weather History Graph

Daily Weather History Graph

Search for Another Location

Airport:

Trip Planner

Search our weather history database for the weather conditions in past years. The results will help you decide how hot, cold, wet, or windy it might be!

Date:

Astronomy

Jan. 12, 2014 Rise Set
Actual Time 6:52 AM CST 5:13 PM CST
Civil Twilight 6:25 AM CST 5:39 PM CST
Nautical Twilight 5:56 AM CST 6:08 PM CST
Astronomical Twilight 5:27 AM CST 6:37 PM CST
Moon 2:39 PM CST (1/12) 3:52 AM CST (1/12)
Length of Visible Light 11h 13m
Length of Day
10h 21m
Waxing Gibbous, 90% of the Moon is Illuminated
Jan 12
Waxing Gibbous
Jan 15
Full
Jan 23
Last Quarter
Jan 30
New
Feb 6
First Quarter

Hourly Weather History & Observations

Time (CST) Temp. Windchill Dew Point Humidity Pressure Visibility Wind Dir Wind Speed Gust Speed Precip Events Conditions
12:53 AM 45.0 °F - 37.9 °F 76% 30.12 in 10.0 mi Calm Calm - N/A   Clear
1:53 AM 43.0 °F 40.3 °F 37.0 °F 80% 30.12 in 10.0 mi NNW 4.6 mph - N/A   Clear
2:53 AM 51.1 °F - 35.1 °F 54% 30.14 in 10.0 mi SSW 3.5 mph - N/A   Clear
3:53 AM 43.0 °F - 36.0 °F 76% 30.14 in 10.0 mi Calm Calm - N/A   Clear
4:53 AM 41.0 °F - 35.1 °F 79% 30.15 in 10.0 mi Calm Calm - N/A   Clear
5:53 AM 39.0 °F - 34.0 °F 82% 30.16 in 10.0 mi Calm Calm - N/A   Clear
6:22 AM 39.0 °F - 34.0 °F 82% 30.17 in 1.8 mi Calm Calm - N/A   Haze
6:32 AM 39.0 °F - 34.0 °F 82% 30.17 in 10.0 mi Calm Calm - N/A   Clear
6:53 AM 39.0 °F - 34.0 °F 82% 30.18 in 10.0 mi Calm Calm - N/A   Clear
7:53 AM 46.0 °F - 37.9 °F 73% 30.20 in 10.0 mi Calm Calm - N/A   Clear
8:53 AM 57.0 °F - 41.0 °F 55% 30.23 in 10.0 mi Calm Calm - N/A   Clear
9:53 AM 75.9 °F - 36.0 °F 23% 30.24 in 10.0 mi East 4.6 mph - N/A   Clear
10:53 AM 75.2 °F - 33.1 °F 21% 30.22 in 10.0 mi Calm Calm - N/A   Clear
11:53 AM 75.2 °F - 30.9 °F 20% 30.19 in 10.0 mi Variable 5.8 mph - N/A   Clear
12:53 PM 75.2 °F - 33.1 °F 21% 30.17 in 10.0 mi SSE 10.4 mph - N/A   Clear
1:53 PM 75.2 °F - 32.0 °F 21% 30.16 in 10.0 mi SSE 11.5 mph - N/A   Clear
2:53 PM 77.0 °F - 30.9 °F 19% 30.16 in 10.0 mi SSE 15.0 mph - N/A   Clear
3:53 PM 77.0 °F - 37.0 °F 24% 30.16 in 10.0 mi SSE 9.2 mph - N/A   Clear
4:53 PM 73.0 °F - 39.0 °F 29% 30.16 in 10.0 mi SSE 4.6 mph - N/A   Clear
5:53 PM 53.1 °F - 42.1 °F 66% 30.16 in 10.0 mi Calm Calm - N/A   Clear
6:53 PM 50.0 °F - 43.0 °F 77% 30.17 in 10.0 mi Calm Calm - N/A   Clear
7:53 PM 48.0 °F - 42.1 °F 80% 30.18 in 10.0 mi Calm Calm - N/A   Clear
8:53 PM 46.9 °F - 41.0 °F 80% 30.16 in 10.0 mi Calm Calm - N/A   Clear
9:53 PM 46.0 °F - 41.0 °F 83% 30.16 in 10.0 mi Calm Calm - N/A   Clear
10:53 PM 46.9 °F - 42.1 °F 83% 30.16 in 10.0 mi Calm Calm - N/A   Clear
11:53 PM 48.0 °F - 41.0 °F 77% 30.14 in 10.0 mi Calm Calm - N/A   Clear